Погода в Печоре

Погода в Печоре : погода сейчас, прогноз погоды и архив. Всё, что Вы хотите узнать о погоде в Печоре!

Хотите узнать прогноз погоды в Печоре? Тогда Вам сюда: Погода в Печоре

Поиск расширенной информации на нашем сайте:

Другие новости

Новости СМИ2

Главная страница сайта

Новости сайта

02.10.2013

Напоминаем, что на нашем новом сайте вы можете получить высокодетализированные прогнозы погоды по пунктам России, СНГ и мира (включающие важные для авиации метеовеличины, такие как направление и скорость ветра, видимость, явления погоды, количество и форма облачности, нижняя и верхняя граница облачности), а также ознакомиться с разнообразными материалами по авиационной метеорологии и подборкой полезных ссылок на эту тему.

Сайт Метеоцентр.Азия посвящён разработке технологий оптимизации авиаметеорологического обслуживания, включая проектирование и перспективное создание нескольких автоматизированных авиаметеорологических систем:
- система выпуска высокодетальных прогностических карт явлений погоды для нижнего воздушного пространства по России и ближнему зарубежью;
- система верификации прогнозов TAF (выпускаемых синоптиками официальных АМСГ РФ и ближнего зарубежья) и AUTOTAF (выпускаемых сайтом Метеоцентр.Азия) - выявление ошибок, онлайн-сопоставление с фактической погодой METAR, автоматическое внесение коррективов в прогнозы при резком отклонении фактической погоды от прогноза, подсчёт оправдываемости прогнозов по элементам и в целом;
- система обработки, анализа и отображения авиаметеорологической информации для применения провайдерами метеорологической информации.

Рекомендуем: Подробное описание наружная реклама у нас.

Погода в Печоре - сегодня

Время (UTC), дата Ветер
(°,м/с) 
Видим.   Явления Облачность Т
(°С)
Тd
(°С)
f(%) Тe
(°С)
Pmin
(гПа)
dP
(гПа)
Po
(мм)
O2
(г/м3)
Тmin Tmax R s Состояние
почвы
06 24.04.17 350 (С) 4400 м  слаб. снег  10/0 средняя 
[As op]
-1.6 -3.3 88 -4  1003.4  2.2  747  303  -2.6         
09 24.04.17 320 (СЗ) 9000 м  слаб. снег  10/8 400 м средняя 
[Frnb|As op]
+0 -2.3 84 -2  1006.1  2.7  749  302           
12 24.04.17 360 (С) 15000 м  в посл. час снег  4/0 средняя 
[Ac lent]
+2.4 -3.5 65 +2  1008.8  2.9  751  300           
15 24.04.17 030 (СВ) 15000 м    3/0 средняя 
[Ac trans]
+1.6 -5 61 +1  1010.5  1.5  752  302    +2.7  0.8     
18 24.04.17 020 (С) 15000 м    3/0 средняя 
[Ac trans]
-2.5 -7.3 70 -4  1012.4  1.9  754  307           
21 24.04.17 330 (СЗ) 15000 м    9/0 средняя 
[Ac trans]
-5.7 -9.5 74 -5  1012.3  -0.2  754  311           
00 25.04.17 360 (С) 15000 м    3/0 средняя 
[Ac trans]
-7.5 -10.5 79 -9  1012.3  754  313           
03 25.04.17 340 (С) 15000 м    3/0 верхняя 
[Ci fib]
-6.4 -9.2 80 -8  1012.4  0.1  754  312  -8.4      97  неравномерный
мокрый или
старый снег
100% 
06 25.04.17 360 (С) 15000 м    10/0 верхняя 
[Ci sp]
-3 -6.8 75 -6  1011.3  -1.1  753  307           
09 25.04.17 360 (С) 15000 м    10/0 верхняя 
[Ci fib]
+1.3 -6.2 57 -2  1009.6  -1.6  752  302           
12 25.04.17 360 (С) 6-10{10}  15000 м    9/0 верхняя 
[Ci fib]
+2.2 -7 51 -1  1009.6  0.2  752  301           
15 25.04.17 350 (С) 6-10{11}  15000 м    8/0 верхняя 
[Ci fib]
+0.9 -8.8 48 -2  1011.1  1.3  753  303    +2.4       
18 25.04.17 350 (С) 4{10}  15000 м    1/0 верхняя 
[Ci fib]
-3.1 -9.9 59 -6  1013.3  754  308           
21 25.04.17 330 (СЗ) 15000 м    1/0 верхняя 
[Ci fib]
-7.3 -11.2 74 -10  1015.3  756  314           
00 26.04.17 350 (С) 15000 м    1/0 верхняя 
[Ci fib]
-10.8 -12.1 90 -13  1017.7  2.3  758  319           
03 26.04.17 310 (СЗ) 15000 м    3/0 верхняя 
[Ci fib]
-9.7 -11.4 87 -10  1019.8  2.1  759  318  -11.7      96  неравномерный
мокрый или
старый снег
100% 
06 26.04.17 310 (СЗ) 20000 м    3/0 верхняя 
[Ci fib]
-4.7 -10.4 64 -6  1020.7  760  313           
09 26.04.17 340 (С) 20000 м    8/0 верхняя 
[Ci fib]
+0.1 -10.7 44 -1  1021.4  0.9  761  307           
12 26.04.17 350 (С) 15000 м    4/0 верхняя 
[Ci fib]
+3.3 -12.9 29 +4  1021.3  761  304           
15 26.04.17 340 (С) 15000 м    ясно 
+3.5 -12.4 30 +4  1020.1  -1.2  760  303    +4.3       
18 26.04.17 110 (В) 15000 м    ясно 
-4.6 -9.8 67 -4  1020  -0.4  759  312           
21 26.04.17 130 (ЮВ) 15000 м    ясно 
-3.9 -10.6 60 -5  1019.1  -0.9  759  311           
00 27.04.17 130 (ЮВ) 15000 м    9/0 верхняя 
[Ci sp]
-3 -8.8 64 -6  1016.2  -2.9  756  309           
03 27.04.17 140 (ЮВ) 15000 м    10/0 средняя 
[Ac und]
-0.1 -4.4 73 -3  1012.9  -3.1  754  304  -6.5      96  неравномерный
мокрый или
старый снег
100% 
06 27.04.17 130 (ЮВ) 7-12{13}  10 км  слаб. дождь  10/0 средняя 
[As op]
+4.2 -1.3 67 +1  1008.7  -4  751  298           
Время (UTC), дата Ветер
(°,м/с) 
Видим.   Явления Облачность Т
(°С)
Тd
(°С)
f(%) Тe
(°С)
Pmin
(гПа)
dP
(гПа)
Po
(мм)
O2
(г/м3)
Тmin Tmax R s Состояние
почвы

Для получения пояснительной информации подведите курсор к названию столбца.

ПОГОДА в Печоре - архив

Всё, что Вы хотите узнать о погоде в Печоре - удобно и подробно!

Выберите нужную дату (начиная с 1 января 2015* года) и нажмите кнопку "Найти".
Будут отображены архивные сводки погоды по пункту Печора, начиная с указанной даты.


Отображать данные в формате CSV (для использования в таблицах Excel)


Внимание! Наш архив погоды предназначен исключительно для личного некоммерческого использования в познавательных целях. Если Вам необходимы официальные справки о состоянии погоды (для производственных, юридических, коммерческих и т.п. целей), обращайтесь в органы Росгидромета.

*Примечание: данная дата относится к архиву по метеостанциям СССР (Россия, СНГ, Балтия).
Архив по метеостанциям Зарубежной Европы и Азии (кроме Китая) хранится 10 дней, по другим регионам земного шара (Китай, Африка, Америка, Австралия, Океания) - 1 день.

Печора - район местоположения метеостанции


Название, широта, долгота, высота метеостанции:
Печора 65.1°ш. 57.1°д. 59 м над ур. моря [Российская Федерация]

Дополнительная информация

В oтличие oт бoльшинства пoгoдных сайтoв мы публикуем пoдрoбную метеoинфoрмацию в детальнoм прoфессиoнальнoм фoрмате.

Характеристики температуры и влажнoсти вoздуха измеряются на высoте 2 м в тени вдали oт зданий и деревьев.
Скoрoсть ветра измеряется на высoте 10 м (на урoвне рoста челoвека скoрoсть ветра ниже в 1.5-2 раза). Если метеoстанция нахoдится в гoрoде или в лесу, тo скoрoсть ветра занижена на 2-4 м/с пo сравнению с oткрытым местoм. Скoрoсть ветра над акватoриями крупных рек и oзёр, а также на вершинах хoлмoв на 2-5 м/с выше, чем в oбычных услoвиях.
Атмoсфернoе давление в разных тoчках местнoсти мoжет значительнo oтличаться oт давления на метеoстанции, в зависимoсти oт услoвий рельефа (при пoдъёме на 10 м давление пoнижается примернo на 1 мм рт.ст.).